TimeEDT,TemperatureF,Dew PointF,Humidity,Sea Level PressureIn,VisibilityMPH,Wind Direction,Wind SpeedMPH,Gust SpeedMPH,PrecipitationIn,Events,Conditions,WindDirDegrees,DateUTC
12:15 AM,65.8,63.1,91,30.12,7.0,Calm,Calm,-,N/A,,Overcast,0,2013-07-13 04:15:00
12:35 AM,66.2,63.1,90,30.12,7.0,NW,3.5,-,N/A,,Overcast,320,2013-07-13 04:35:00
12:55 AM,66.2,63.1,90,30.13,7.0,NNW,3.5,-,N/A,,Overcast,340,2013-07-13 04:55:00
1:15 AM,66.2,63.0,89,30.13,7.0,Calm,Calm,-,N/A,,Overcast,0,2013-07-13 05:15:00
1:35 AM,66.2,63.3,90,30.13,7.0,Calm,Calm,-,N/A,,Overcast,0,2013-07-13 05:35:00
1:55 AM,66.0,63.5,92,30.13,5.0,Calm,Calm,-,N/A,,Overcast,0,2013-07-13 05:55:00
2:15 AM,66.2,63.5,91,30.13,5.0,Calm,Calm,-,N/A,,Overcast,0,2013-07-13 06:15:00
2:35 AM,66.2,63.5,91,30.13,5.0,Calm,Calm,-,N/A,,Overcast,0,2013-07-13 06:35:00
2:55 AM,66.2,63.5,91,30.13,7.0,Calm,Calm,-,N/A,,Overcast,0,2013-07-13 06:55:00
3:15 AM,66.2,63.3,90,30.13,7.0,Calm,Calm,-,N/A,,Overcast,0,2013-07-13 07:15:00
3:35 AM,66.2,63.1,90,30.12,5.0,North,3.5,-,N/A,,Scattered Clouds,360,2013-07-13 07:35:00
3:55 AM,65.5,62.6,90,30.13,5.0,Calm,Calm,-,N/A,,Scattered Clouds,0,2013-07-13 07:55:00
4:15 AM,64.9,62.6,92,30.13,4.0,Calm,Calm,-,N/A,,Mostly Cloudy,0,2013-07-13 08:15:00
4:35 AM,64.0,62.1,93,30.13,2.5,Calm,Calm,-,N/A,,Mostly Cloudy,0,2013-07-13 08:35:00
4:55 AM,63.5,61.7,94,30.13,3.0,Calm,Calm,-,N/A,,Clear,0,2013-07-13 08:55:00
5:15 AM,63.3,61.5,94,30.14,4.0,Calm,Calm,-,N/A,,Clear,0,2013-07-13 09:15:00
5:35 AM,63.5,61.7,94,30.14,1.2,Calm,Calm,-,N/A,,Mist,0,2013-07-13 09:35:00
5:55 AM,62.6,60.8,94,30.15,0.8,Calm,Calm,-,N/A,,Overcast,0,2013-07-13 09:55:00
6:15 AM,63.0,61.3,94,30.15,0.2,Calm,Calm,-,N/A,Fog,Fog,0,2013-07-13 10:15:00
6:35 AM,63.5,61.9,94,30.17,0.2,Calm,Calm,-,N/A,Fog,Fog,0,2013-07-13 10:35:00
6:55 AM,64.0,62.6,95,30.18,0.2,Calm,Calm,-,N/A,Fog,Fog,0,2013-07-13 10:55:00
7:15 AM,64.4,63.0,95,30.18,1.0,Calm,Calm,-,N/A,,Overcast,0,2013-07-13 11:15:00
7:35 AM,65.3,63.7,94,30.18,2.0,Calm,Calm,-,N/A,,Overcast,0,2013-07-13 11:35:00
7:55 AM,65.5,64.0,95,30.19,3.0,Calm,Calm,-,N/A,,Mostly Cloudy,0,2013-07-13 11:55:00
8:15 AM,65.8,64.4,95,30.19,3.0,Calm,Calm,-,N/A,,Clear,0,2013-07-13 12:15:00
8:35 AM,66.4,64.9,95,30.19,3.0,NNE,4.6,-,N/A,,Mostly Cloudy,30,2013-07-13 12:35:00
8:55 AM,66.9,64.8,93,30.20,4.0,Calm,Calm,-,N/A,,Mostly Cloudy,0,2013-07-13 12:55:00
9:15 AM,68.9,64.2,85,30.21,7.0,NE,3.5,-,N/A,,Clear,50,2013-07-13 13:15:00
9:35 AM,69.4,63.0,80,30.22,10.0,Calm,Calm,-,N/A,,Scattered Clouds,0,2013-07-13 13:35:00
9:55 AM,70.0,62.8,78,30.22,10.0,Calm,Calm,-,N/A,,Scattered Clouds,0,2013-07-13 13:55:00
10:15 AM,70.2,62.6,77,30.23,10.0,Calm,Calm,-,N/A,,Scattered Clouds,0,2013-07-13 14:15:00
10:35 AM,70.7,62.8,76,30.23,10.0,Calm,Calm,-,N/A,,Overcast,0,2013-07-13 14:35:00
10:55 AM,70.9,61.9,73,30.23,10.0,Calm,Calm,-,N/A,,Overcast,0,2013-07-13 14:55:00
11:15 AM,71.6,62.4,73,30.23,10.0,Calm,Calm,-,N/A,,Overcast,0,2013-07-13 15:15:00
11:35 AM,72.3,62.1,70,30.23,10.0,Calm,Calm,-,N/A,,Overcast,0,2013-07-13 15:35:00
11:55 AM,73.2,62.8,70,30.23,10.0,Calm,Calm,-,N/A,,Overcast,0,2013-07-13 15:55:00
12:15 PM,74.5,63.7,69,30.23,10.0,Calm,Calm,-,N/A,,Overcast,0,2013-07-13 16:15:00
12:35 PM,75.2,63.3,66,30.23,10.0,East,3.5,-,N/A,,Mostly Cloudy,80,2013-07-13 16:35:00
12:55 PM,74.8,63.1,67,30.23,10.0,SE,4.6,-,N/A,,Mostly Cloudy,140,2013-07-13 16:55:00
1:15 PM,76.6,64.2,65,30.23,10.0,Calm,Calm,-,N/A,,Mostly Cloudy,0,2013-07-13 17:15:00
1:35 PM,76.5,63.9,65,30.23,10.0,Calm,Calm,-,N/A,,Mostly Cloudy,0,2013-07-13 17:35:00
1:55 PM,76.6,63.9,65,30.23,10.0,Calm,Calm,-,N/A,,Mostly Cloudy,0,2013-07-13 17:55:00
2:15 PM,77.4,64.9,65,30.23,10.0,South,4.6,-,N/A,,Mostly Cloudy,170,2013-07-13 18:15:00
2:35 PM,77.2,63.7,63,30.23,10.0,Calm,Calm,-,N/A,,Overcast,0,2013-07-13 18:35:00
2:55 PM,78.4,64.2,62,30.22,10.0,Calm,Calm,-,N/A,,Overcast,0,2013-07-13 18:55:00
3:15 PM,77.9,63.9,62,30.22,10.0,Calm,Calm,-,N/A,,Overcast,0,2013-07-13 19:15:00
3:35 PM,78.4,64.4,62,30.23,10.0,SE,5.8,-,N/A,,Overcast,130,2013-07-13 19:35:00
3:55 PM,78.8,64.2,61,30.23,10.0,SE,5.8,-,N/A,,Overcast,140,2013-07-13 19:55:00
4:15 PM,78.1,64.8,63,30.23,10.0,ESE,4.6,-,N/A,,Overcast,120,2013-07-13 20:15:00
4:35 PM,77.0,65.3,67,30.23,10.0,SE,3.5,-,N/A,,Overcast,130,2013-07-13 20:35:00
4:55 PM,77.5,65.1,65,30.23,10.0,Calm,Calm,-,N/A,,Overcast,0,2013-07-13 20:55:00
5:15 PM,78.3,65.3,64,30.23,10.0,SE,3.5,-,N/A,,Mostly Cloudy,130,2013-07-13 21:15:00
5:35 PM,79.3,66.6,65,30.23,10.0,NE,3.5,-,N/A,,Mostly Cloudy,50,2013-07-13 21:35:00
5:55 PM,78.8,66.0,65,30.23,10.0,SE,3.5,-,N/A,,Overcast,130,2013-07-13 21:55:00
6:15 PM,77.9,66.0,67,30.23,10.0,East,5.8,-,N/A,,Overcast,80,2013-07-13 22:15:00
6:35 PM,77.9,66.4,68,30.23,10.0,East,3.5,-,N/A,,Overcast,100,2013-07-13 22:35:00
6:55 PM,77.5,66.6,69,30.23,10.0,East,4.6,-,N/A,,Overcast,100,2013-07-13 22:55:00
7:15 PM,77.4,66.9,70,30.23,10.0,East,3.5,-,N/A,,Overcast,80,2013-07-13 23:15:00
7:35 PM,77.2,67.1,71,30.23,10.0,Calm,Calm,-,N/A,,Overcast,0,2013-07-13 23:35:00
7:55 PM,74.3,68.2,81,30.24,4.0,SE,3.5,-,0.03,Rain,Light Rain,140,2013-07-13 23:55:00
8:15 PM,73.8,68.7,84,30.24,10.0,Calm,Calm,-,N/A,,Overcast,0,2013-07-14 00:15:00
8:35 PM,73.9,68.7,84,30.24,10.0,Calm,Calm,-,N/A,,Mostly Cloudy,0,2013-07-14 00:35:00
8:55 PM,73.8,68.5,84,30.25,10.0,Calm,Calm,-,N/A,,Mostly Cloudy,0,2013-07-14 00:55:00
9:15 PM,73.9,68.7,84,30.25,10.0,Calm,Calm,-,N/A,,Overcast,0,2013-07-14 01:15:00
9:35 PM,73.4,68.2,84,30.27,10.0,SSE,3.5,-,N/A,,Overcast,150,2013-07-14 01:35:00
9:55 PM,73.2,68.0,84,30.27,10.0,Calm,Calm,-,0.01,,Overcast,0,2013-07-14 01:55:00
10:15 PM,73.2,68.0,84,30.28,10.0,NNE,3.5,-,N/A,,Overcast,30,2013-07-14 02:15:00
10:35 PM,72.5,68.9,88,30.28,10.0,North,4.6,-,N/A,,Overcast,350,2013-07-14 02:35:00
10:55 PM,72.3,68.4,87,30.29,10.0,Calm,Calm,-,N/A,Rain,Rain,0,2013-07-14 02:55:00
11:15 PM,71.2,68.2,90,30.29,10.0,NNE,3.5,-,N/A,,Mostly Cloudy,20,2013-07-14 03:15:00
11:35 PM,71.6,68.0,88,30.29,10.0,North,3.5,-,N/A,,Mostly Cloudy,10,2013-07-14 03:35:00
11:55 PM,71.6,68.4,89,30.30,7.0,Calm,Calm,-,0.02,Rain,Light Rain,0,2013-07-14 03:55:00